Preview of NWS' New Version of Forecast
This preview is not operational and should not be used for support decisions.

Regional Weather Roundup (RWR)

Issued by National Weather Service (NWS)

                            
000
ASUS45 KCYS 201110
RWRWY 

WYOMING REGIONAL WEATHER ROUNDUP
NATIONAL WEATHER SERVICE CHEYENNE WY
500 AM MDT TUE AUG 20 2019

NOTE:  "FAIR" INDICATES FEW OR NO CLOUDS BELOW 12,000 FEET
WITH NO SIGNIFICANT WEATHER AND/OR OBSTRUCTIONS TO VISIBILITY.

WYZ001-201200-
...YELLOWSTONE NATIONAL PARK...
  
CITY           SKY/WX    TMP DP  RH WIND       PRES   REMARKS
LK YELLOWSTONE   N/A     40  35  83 NW3       30.35S                  
W YELLOWSTONE  NOT AVBL                                               

$$
WYZ002>013-054>058-071-098>099-201200-
...NORTHERN WYOMING...
  
CITY           SKY/WX    TMP DP  RH WIND       PRES   REMARKS
JACKSON        CLEAR     44  33  65 NE3       30.26R                  
CODY           CLEAR     64  37  36 SW6       30.14S                  
GREYBULL       CLEAR     63  40  42 MISG      30.03R                  
WORLAND        MOCLDY    60  42  51 S6        30.05R                  
SHERIDAN       PTCLDY    57  45  64 S6        30.08F                  
BUFFALO        PTCLDY    60  41  49 NW9       30.15S                  
GILLETTE       PTCLDY    56  48  74 N3        30.08R                  
HULETT         FAIR      64  48  55 N8G16     30.11R                  
NEWCASTLE      FAIR      70  43  37 N7G17     30.05R                  

$$
WYZ014>020-022>026-101>103-201200-
...CENTRAL WYOMING...
  
CITY           SKY/WX    TMP DP  RH WIND       PRES   REMARKS
BIG PINEY      MOCLDY    44  27  51 NW6       30.29R                  
PINEDALE       PTCLDY    41  32  70 W7        30.30S                  
DUBOIS         FAIR      50  28  43 NW8       30.28S                  
LANDER         MOCLDY    63  26  24 N8        30.15R                  
RIVERTON       MOCLDY    66  34  30 N8        30.13R                  
CASPER         PTCLDY    54  36  50 W8        30.13R                  
DOUGLAS        CLEAR     51  38  60 N3        30.10R                  

$$
WYZ021-027>030-104>119-201200-
...SOUTHERN WYOMING...
  
CITY           SKY/WX    TMP DP  RH WIND       PRES   REMARKS
EVANSTON       MOCLDY    56  25  30 SE7       30.28F                  
KEMMERER       MOCLDY    50  27  40 N10       30.30S                  
FORT BRIDGER   NOT AVBL                                               
ROCK SPRINGS   CLEAR     59  21  23 W3        30.26R                  
DIXON          FAIR      45  28  52 SE5       30.30R                  
RAWLINS        CLEAR     56  26  31 CALM      30.26R                  
SARATOGA       FAIR      50  28  43 CALM      30.29S                  
LARAMIE        CLEAR     48  31  51 SW3       30.30R                  
CHEYENNE       CLEAR     64  51  62 W13       30.18S                  
TORRINGTON     MOCLDY    65  59  81 E8        30.02S                  
PINE BLUFFS    FAIR      59  55  88 CALM      30.12S                  

$$